| time (UTC) | temp F | wind direction | speed knots | gust knots | rain 1hr in | rain 24hr in | rain mn in | humidity % | barometer mb |
| 20260506221621 | 58 | 219 | 0.0 | 1.7 | 0.01 | 0.12 | 0.12 | 67 | 1006.7 |
| 20260506220007 | 58 | 219 | 0.0 | 2.6 | 0.02 | 0.12 | 0.12 | 67 | 1006.8 |
| 20260506214548 | 58 | 253 | 0.0 | 2.6 | 0.03 | 0.12 | 0.12 | 67 | 1006.8 |
| 20260506213021 | 59 | 211 | 0.0 | 4.3 | 0.03 | 0.11 | 0.11 | 67 | 1006.9 |
| 20260506211600 | 58 | 223 | 0.9 | 2.6 | 0.04 | 0.11 | 0.11 | 65 | 1007.2 |
| 20260506211502 | 58 | 212 | 0.0 | 2.6 | 0.04 | 0.11 | 0.11 | 65 | 1007.1 |
| 20260506210008 | 58 | 214 | 0.0 | 3.5 | 0.03 | 0.10 | 0.10 | 65 | 1007.3 |
| 20260506204545 | 59 | 143 | 0.9 | 5.2 | 0.03 | 0.09 | 0.09 | 65 | 1007.2 |
| 20260506203021 | 59 | 203 | 0.0 | 2.6 | 0.02 | 0.08 | 0.08 | 65 | 1007.3 |
| 20260506201557 | 59 | 243 | 0.9 | 11.3 | 0.02 | 0.07 | 0.07 | 67 | 1007.5 |
| 20260506200007 | 58 | 236 | 0.0 | 4.3 | 0.03 | 0.07 | 0.07 | 68 | 1007.6 |
| 20260506194545 | 59 | 252 | 0.9 | 4.3 | 0.04 | 0.06 | 0.06 | 67 | 1007.6 |
| 20260506193027 | 59 | 193 | 0.0 | 1.7 | 0.05 | 0.06 | 0.06 | 68 | 1007.9 |
| 20260506191619 | 59 | 214 | 0.9 | 2.6 | 0.05 | 0.05 | 0.05 | 72 | 1007.8 |
| 20260506191501 | 59 | 207 | 0.9 | 2.6 | 0.05 | 0.05 | 0.05 | 72 | 1007.8 |
| 20260506190015 | 60 | 207 | 0.9 | 2.6 | 0.04 | 0.04 | 0.04 | 74 | 1008.0 |
| 20260506184559 | 61 | 255 | 0.9 | 3.5 | 0.02 | 0.02 | 0.02 | 78 | 1008.1 |
| 20260506183023 | 62 | 224 | 0.0 | 4.3 | 0.01 | 0.01 | 0.01 | 78 | 1008.2 |
| 20260506181503 | 64 | 210 | 0.0 | 2.6 | 0.00 | 0.00 | 0.00 | 75 | 1008.3 |
| 20260506180019 | 65 | 237 | 0.0 | 2.6 | 0.00 | 0.00 | 0.00 | 71 | 1008.4 |
| 20260506174551 | 67 | 216 | 0.9 | 5.2 | 0.00 | 0.00 | 0.00 | 68 | 1008.4 |
| 20260506173027 | 69 | 212 | 0.9 | 5.2 | 0.00 | 0.00 | 0.00 | 64 | 1008.4 |
| 20260506171510 | 70 | 209 | 2.6 | 5.2 | 0.00 | 0.00 | 0.00 | 61 | 1008.6 |
| 20260506170013 | 71 | 193 | 1.7 | 4.3 | 0.00 | 0.00 | 0.00 | 61 | 1008.4 |
| 20260506164551 | 71 | 223 | 1.7 | 5.2 | 0.00 | 0.00 | 0.00 | 61 | 1008.4 |
| 20260506163035 | 70 | 181 | 0.0 | 4.3 | 0.00 | 0.00 | 0.00 | 62 | 1008.8 |
| 20260506161507 | 71 | 224 | 1.7 | 6.1 | 0.00 | 0.00 | 0.00 | 61 | 1009.0 |
| 20260506160021 | 70 | 211 | 1.7 | 4.3 | 0.00 | 0.00 | 0.00 | 61 | 1009.1 |
| 20260506154553 | 72 | 257 | 1.7 | 4.3 | 0.00 | 0.00 | 0.00 | 59 | 1009.1 |
| 20260506153032 | 71 | 174 | 0.9 | 5.2 | 0.00 | 0.00 | 0.00 | 61 | 1009.4 |
| 20260506151509 | 71 | 204 | 0.9 | 4.3 | 0.00 | 0.00 | 0.00 | 61 | 1009.6 |
| 20260506150017 | 70 | 245 | 0.0 | 3.5 | 0.00 | 0.00 | 0.00 | 64 | 1009.9 |
| 20260506144602 | 68 | 212 | 0.9 | 3.5 | 0.00 | 0.00 | 0.00 | 65 | 1009.8 |
| 20260506143031 | 68 | 261 | 0.0 | 7.0 | 0.00 | 0.00 | 0.00 | 65 | 1009.9 |
| 20260506141510 | 68 | 217 | 0.9 | 3.5 | 0.00 | 0.00 | 0.00 | 65 | 1009.8 |
| 20260506140026 | 68 | 208 | 0.9 | 4.3 | 0.00 | 0.00 | 0.00 | 65 | 1009.7 |
| 20260506134558 | 67 | 207 | 0.9 | 7.0 | 0.00 | 0.00 | 0.00 | 67 | 1009.6 |
| 20260506134502 | 67 | 220 | 0.9 | 7.0 | 0.00 | 0.00 | 0.00 | 67 | 1009.8 |
| 20260506133031 | 66 | 207 | 0.9 | 3.5 | 0.00 | 0.00 | 0.00 | 69 | 1009.7 |
| 20260506131507 | 64 | 217 | 0.0 | 3.5 | 0.00 | 0.00 | 0.00 | 70 | 1010.3 |
| 20260506130013 | 63 | 229 | 0.0 | 2.6 | 0.00 | 0.00 | 0.00 | 71 | 1010.5 |
| 20260506124551 | 62 | 212 | 0.0 | 4.3 | 0.00 | 0.00 | 0.00 | 72 | 1010.4 |
| 20260506123027 | 62 | 216 | 0.9 | 3.5 | 0.00 | 0.00 | 0.00 | 72 | 1010.4 |
| 20260506121506 | 62 | 222 | 0.9 | 3.5 | 0.00 | 0.00 | 0.00 | 72 | 1010.5 |
| 20260506120018 | 61 | 236 | 0.0 | 4.3 | 0.00 | 0.00 | 0.00 | 73 | 1010.5 |
| 20260506114555 | 60 | 240 | 0.0 | 3.5 | 0.00 | 0.00 | 0.00 | 75 | 1010.6 |
| 20260506113030 | 59 | 220 | 0.0 | 4.3 | 0.00 | 0.00 | 0.00 | 76 | 1010.7 |
| 20260506111508 | 59 | 255 | 0.0 | 3.5 | 0.00 | 0.00 | 0.00 | 75 | 1010.8 |
| 20260506110021 | 58 | 222 | 0.0 | 2.6 | 0.00 | 0.00 | 0.00 | 76 | 1010.7 |
| 20260506104601 | 58 | 196 | 0.0 | 1.7 | 0.00 | 0.00 | 0.00 | 77 | 1010.6 |
| 20260506103033 | 57 | 240 | 0.9 | 2.6 | 0.00 | 0.00 | 0.00 | 78 | 1010.6 |
| 20260506101513 | 57 | 248 | 0.0 | 2.6 | 0.00 | 0.00 | 0.00 | 78 | 1010.7 |
| 20260506100024 | 57 | 215 | 0.0 | 2.6 | 0.00 | 0.00 | 0.00 | 78 | 1010.5 |
| 20260506094556 | 57 | 237 | 0.0 | 1.7 | 0.00 | 0.00 | 0.00 | 78 | 1010.4 |
| 20260506093032 | 57 | 223 | 0.0 | 3.5 | 0.00 | 0.00 | 0.00 | 78 | 1010.4 |
| 20260506091512 | 57 | 223 | 0.0 | 3.5 | 0.00 | 0.00 | 0.00 | 78 | 1010.5 |
| 20260506090020 | 57 | 230 | 0.9 | 2.6 | 0.00 | 0.00 | 0.00 | 78 | 1010.5 |
| 20260506084558 | 57 | 219 | 0.0 | 3.5 | 0.00 | 0.00 | 0.00 | 78 | 1010.5 |
| 20260506083034 | 57 | 204 | 0.9 | 2.6 | 0.00 | 0.00 | 0.00 | 79 | 1010.6 |
| 20260506081511 | 57 | 246 | 0.9 | 3.5 | 0.00 | 0.00 | 0.00 | 79 | 1010.6 |
| 20260506073034 | 58 | 159 | 0.0 | 3.5 | 0.00 | 0.00 | 0.00 | 78 | 1010.6 |
| 20260506071510 | 58 | 232 | 0.0 | 3.5 | 0.00 | 0.00 | 0.00 | 78 | 1010.6 |
| 20260506061512 | 60 | 212 | 0.9 | 7.0 | 0.00 | 0.00 | 0.00 | 76 | 1010.4 |
| 20260506044600 | 61 | 262 | 0.9 | 3.5 | 0.00 | 0.00 | 0.00 | 72 | 1010.9 |
| 20260506044501 | 61 | 248 | 0.0 | 3.5 | 0.00 | 0.00 | 0.00 | 72 | 1010.7 |
| 20260506043040 | 61 | 231 | 0.9 | 3.5 | 0.00 | 0.00 | 0.00 | 71 | 1010.9 |
| 20260506041516 | 61 | 263 | 0.9 | 3.5 | 0.00 | 0.00 | 0.00 | 70 | 1011.0 |
| 20260506040028 | 61 | 209 | 0.9 | 4.3 | 0.00 | 0.00 | 0.00 | 70 | 1011.0 |
| 20260506034604 | 61 | 256 | 0.9 | 2.6 | 0.00 | 0.00 | 0.00 | 70 | 1010.9 |
| 20260506034501 | 61 | 231 | 0.0 | 2.6 | 0.00 | 0.00 | 0.00 | 70 | 1011.0 |
| 20260506033039 | 61 | 207 | 0.9 | 7.0 | 0.00 | 0.00 | 0.00 | 69 | 1010.7 |
| 20260506031528 | 61 | 225 | 0.9 | 4.3 | 0.00 | 0.00 | 0.00 | 70 | 1010.7 |
| 20260506030041 | 60 | 170 | 0.9 | 4.3 | 0.00 | 0.00 | 0.00 | 70 | 1010.7 |
| 20260506024559 | 60 | 236 | 0.0 | 7.8 | 0.00 | 0.00 | 0.00 | 70 | 1010.8 |
| 20260506023034 | 60 | 210 | 0.0 | 4.3 | 0.00 | 0.00 | 0.00 | 70 | 1010.8 |
| 20260506021514 | 60 | 219 | 0.0 | 4.3 | 0.00 | 0.00 | 0.00 | 70 | 1010.8 |
| 20260506020021 | 60 | 214 | 0.9 | 6.1 | 0.00 | 0.00 | 0.00 | 69 | 1010.8 |
| 20260506014603 | 61 | 185 | 0.9 | 4.3 | 0.00 | 0.00 | 0.00 | 69 | 1010.7 |
| 20260506013036 | 61 | 243 | 0.0 | 6.1 | 0.00 | 0.00 | 0.00 | 68 | 1010.7 |
| 20260506011512 | 61 | 218 | 0.9 | 3.5 | 0.00 | 0.00 | 0.00 | 68 | 1010.5 |
| 20260506010023 | 62 | 265 | 0.9 | 3.5 | 0.00 | 0.00 | 0.00 | 67 | 1010.0 |
| 20260506004557 | 62 | 221 | 0.9 | 3.5 | 0.00 | 0.00 | 0.00 | 66 | 1009.9 |
| 20260506003041 | 63 | 294 | 0.9 | 3.5 | 0.00 | 0.00 | 0.00 | 66 | 1009.9 |
| 20260506001513 | 63 | 188 | 0.9 | 7.0 | 0.00 | 0.00 | 0.00 | 65 | 1009.6 |
| 20260506000025 | 64 | 224 | 0.9 | 3.5 | 0.00 | 0.00 | 0.00 | 64 | 1009.5 |
| 20260505234557 | 65 | 255 | 0.9 | 7.0 | 0.00 | 0.00 | 0.00 | 63 | 1009.3 |
| 20260505233039 | 66 | 162 | 0.0 | 2.6 | 0.00 | 0.00 | 0.00 | 61 | 1009.1 |
| 20260505231521 | 67 | 231 | 1.7 | 7.8 | 0.00 | 0.00 | 0.00 | 60 | 1008.9 |
| 20260505230040 | 69 | 248 | 1.7 | 5.2 | 0.00 | 0.00 | 0.00 | 57 | 1008.7 |
| 20260505224506 | 70 | 230 | 1.7 | 5.2 | 0.00 | 0.00 | 0.00 | 54 | 1008.5 |
| 20260505223044 | 71 | 138 | 1.7 | 4.3 | 0.00 | 0.00 | 0.00 | 52 | 1008.1 |